Weather at El Milagro Carabobo Airport

Public forecast

Using degrees Celsius for public forecast. Weather courtesy of forecast.io.

Closest aviation weather report (METAR) to El Milagro Carabobo Airport

Report is more than 6 hours old.

Closest report is Sub Teniente Nestor Arias Airport, 23.7 nm (43.9 km) WNW. Retrieved 2017/08/10 11:00 UTC (4 years ago):

SVSP 101100Z 101100VCFG SCT012 SCT200 25/25 A2990

Closest aviation forecast (TAF) to El Milagro Carabobo Airport

Forecast is more than 12 hours old.

Closest forecast is Arturo Michelena International Airport, 26.4 nm (48.9 km) E. Retrieved 2022/01/23 18:51 UTC (2 days ago):

TAF TAF SVVA 231600Z 2318/2418 12003KT 9999 SCT016 TX31/2318Z TN21/2408Z TEMPO 2322/2402 07002KT 9999 SCT016 TEMPO 2406/2410 09003KT SCT016